TITAN 3C TRANSTAGE DEB, 59978

Orbit data source: Space-Track

TITAN 3C TRANSTAGE DEB, 59978 is space debris in GEO originally from a launch on Thu, 26 Sep 1968 UTC launched from the Air Force Eastern Test Range (AFETR). Debris objects in space refer to the collection of defunct objects orbiting the Earth. Examples of debris include non-operational satellites, rocket bodies, and fragments generated from explosions, collisions, or faulty payload assembly.

Loading next visibility...
Identifier
59978, 1968-081AL
Orbit
GEO
Country
Flag of USUS
Related business
Manufacturer
Unknown
Mission
Spacecraft
Bus & Motor
Unknown
Mass
Unknown
Launch date (UTC)
1968-09-26 (58 years ago)
Launch vehicle
Unknown
Launch site
Air Force Eastern Test Range (AFETR)
Object type
Payload
Rocket body
Debris
Shape & HBR
Unknown shape, 1.1 m
Radar Cross Section
RCS unknown

Expand to show TLE details & history
Last TLE update: 23 hours ago

TLE from 23 hours ago
0 TITAN 3C TRANSTAGE DEB
1 59978U 68081AL  26257.52965902 -.00000158  00000-0  00000-0 0  9996
2 59978   2.3992  58.0892 0081265 234.6453 125.0768  1.02049861 30728
Epoch: 2026-09-14T12:42Z
TLE epoch observation values (Epoch: 2026-09-14T12:42:42.539Z)
Latitude
-0°
Longitude
-125.62516°
Altitude
35,489.645 km
Speed
3.078 km/s
True Right ascension
03h 54m 14s
True Declination
0° 00' 00"
Sunlit
Object was in daylight at epoch
Visualization orbit readout
Latitude
Unknown
Longitude
Unknown
Altitude
Unknown
Speed
Unknown
Apparent Right ascension
Unknown
Apparent Declination
Unknown
Sunlit
N/A
Visualization observer readout
Local Sidereal Time
04:10:55
Azimuth
Unknown
Elevation
Unknown
Doppler factor
Unknown
Orbital elements
Apogee altitude
35,635.136 km
Perigee altitude
34,957.798 km
Semi-major axis
41,674.604 km
Eccentricity
0.00813
Inclination
2.3992°
RAAN
58.0892°
Arg. of periapsis
234.6453°
True anomaly
125.83445°
Mean anomaly
125.0768°
Eccentric anomaly
125.45607°
Mean motion
0.25511 °/min
Orbital period
1,411.13 mins
BSTAR
0
Loading maneuver chart data...
Computing Atmospheric mass density...

Documentation

Showing up to 5 results
|